Location: Brusselsch Zeekanaal
(50.8667°N, 4.3667°E)
Time: 01:36:29
(UTC+00:00)

ACS3 Solar Sail - Pass Details

Date: 03 February 2026
Orbit: 899 x 968 km, 97.2° (Epoch: 14 February)

Event Time Altitude Azimuth Distance (km) Brightness Sun altitude
Rises 03:40:49 0° 5° (N) 3,594 5.0 -33.9°
Reaches altitude 10° 03:43:45 10° 352° (N) 2,635 4.1 -33.5°
Enters shadow 03:43:56 11° 351° (N) 2,581 4.1 -33.4°
